Wind_Gust
12 12 12 13 12 11 11 12 11 12 12 11 10 9 11 12 14 14 15 15 16 17 17 16 14 13 12 11 10 12 13 15 16 15 15 16 16 16 18 20 19 19
12 12 12 11 10 11 12 12 12 12 12 10 11 11 11 13 15 17 20 21 21 21 21 19 18 16 15 15 13 14 15 14 16 14 15 17 18 18 21 21 21 19
8 8 10 12 13 13 13 14 16 17 16 15 13 14 15 15 16 19 21 23 23 23 25 23 22 23 22 19 17 15 15 16 17 15 16 17 17 18 19 18 14 18
8 10 11 12 13 15 16 18 19 18 17 19 20 20 20 19 20 20 20 23 24 25 25 25 24 24 25 24 23 19 15 16 17 17 17 16 15 16 18 16 15 16
8 11 11 12 14 15 16 18 19 19 18 17 17 19 21 20 19 18 18 21 26 22 21 19 21 24 25 25 24 22 22 19 16 15 15 15 15 15 16 17 18 17
9 10 11 13 14 15 17 17 17 18 19 19 19 18 16 16 17 17 17 20 21 21 21 19 21 21 21 21 23 24 24 24 24 21 16 16 15 14 14 14 14 16
11 11 13 14 14 14 14 15 15 17 17 16 16 20 18 19 20 20 19 17 20 21 20 20 20 22 21 21 19 20 24 24 25 25 22 15 14 15 13 14 15 14
11 10 12 13 13 12 12 13 15 16 16 17 18 19 19 19 20 17 19 15 18 22 21 21 21 21 22 21 22 23 23 21 24 26 25 22 13 13 9 10 10 12
14 12 11 12 12 11 11 10 13 14 15 17 18 18 18 19 18 19 20 17 17 22 22 22 23 22 22 22 22 22 23 23 21 24 25 24 21 15 13 10 10 11
14 13 12 12 13 13 13 10 9 12 13 15 15 17 20 20 19 18 19 20 17 22 24 23 24 25 24 23 22 22 23 23 23 22 22 23 22 21 15 12 11 13
13 12 12 13 13 13 13 12 10 8 10 12 15 17 17 19 21 19 20 21 22 21 24 25 24 25 26 25 23 22 22 22 22 22 21 21 22 22 19 13 11 13
12 11 13 14 14 13 14 14 14 12 9 8 12 15 16 17 18 20 22 21 20 21 22 25 23 23 23 24 25 25 23 22 21 21 21 20 20 20 20 17 13 12
12 12 12 12 13 13 12 14 15 15 15 11 9 12 16 17 18 19 20 19 20 22 24 27 24 23 23 24 26 26 24 23 22 21 21 20 19 19 20 20 14 12
9 8 8 10 10 11 12 13 14 16 15 15 11 11 15 16 17 18 17 19 21 22 23 24 24 24 27 29 26 27 25 22 20 20 20 19 18 17 19 18 16 13
8 8 8 8 8 8 9 11 13 14 16 15 15 14 14 15 16 17 18 19 20 23 23 22 22 24 27 31 30 29 24 23 22 20 21 19 18 18 19 19 15 14
11 9 9 9 11 11 9 9 9 11 14 16 16 16 15 16 16 17 17 18 19 21 19 19 22 22 33 33 28 30 26 24 25 23 21 18 19 22 25 27 26 23
13 13 13 14 12 13 11 9 9 9 12 13 14 15 15 15 16 18 17 16 17 17 19 20 21 28 32 28 30 34 28 23 22 21 22 25 24 24 24 26 27 27
12 13 15 15 14 14 14 12 8 8 12 13 14 14 15 12 14 16 16 16 17 16 17 20 20 26 27 29 30 31 29 25 21 22 23 25 24 25 23 22 24 25
11 14 15 15 15 14 14 14 12 9 10 13 15 12 10 13 12 14 15 15 17 17 18 20 19 25 26 29 29 29 29 24 22 22 22 24 24 23 23 24 21 22
10 11 13 13 13 14 14 15 15 13 8 7 9 9 10 11 11 12 13 14 16 15 15 17 20 24 26 28 29 29 27 23 21 21 23 22 23 23 22 22 21 19
10 9 10 10 10 12 13 14 15 14 12 10 10 11 10 11 12 12 13 13 13 14 14 16 20 25 26 28 28 29 26 19 21 22 23 22 22 20 22 22 21 22
8 8 8 7 9 10 13 14 14 13 14 11 12 13 11 8 9 11 13 13 12 14 14 16 17 21 26 27 28 28 24 21 22 22 23 24 23 22 22 21 20 22
8 8 8 8 8 10 12 12 12 14 13 11 13 13 14 13 12 14 12 13 14 15 16 16 16 20 24 27 27 29 21 20 21 21 24 24 23 21 21 21 21 24
7 8 8 7 7 10 10 9 10 9 12 12 13 14 15 13 10 14 15 15 15 16 19 17 16 19 23 25 26 27 23 21 20 21 20 20 19 20 20 19 21 29
7 7 8 7 8 8 8 8 9 9 7 8 11 10 11 8 9 12 15 15 16 15 17 18 16 16 21 25 26 25 28 20 21 21 22 21 21 21 18 19 21 20
6 8 7 9 8 7 9 9 7 7 10 9 9 10 10 10 8 9 14 15 15 16 17 16 17 17 20 25 24 24 25 25 18 22 26 25 21 22 23 20 20 21
Wind_Speed
6 6 6 6 5 5 5 6 5 6 5 4 4 5 5 5 7 8 9 9 10 10 10 10 9 8 7 7 7 7 7 9 8 8 9 9 9 9 10 11 12 11
6 6 5 4 4 5 5 6 7 7 5 4 5 4 4 5 6 8 9 10 11 12 12 11 10 9 9 8 8 8 8 8 9 6 9 11 10 11 12 14 13 11
5 5 6 7 7 8 8 8 8 8 7 7 7 7 7 6 8 9 10 12 12 12 12 12 13 14 13 11 10 9 8 9 9 8 8 10 10 10 11 11 9 12
6 7 7 7 7 9 9 10 10 9 9 9 10 9 8 8 10 11 9 13 12 12 12 12 12 12 13 13 14 10 9 9 9 9 10 9 8 9 10 9 9 8
5 6 6 7 8 9 9 10 11 10 10 9 10 10 10 11 10 10 9 11 12 12 11 10 10 12 12 12 12 11 12 10 9 9 9 9 9 9 9 9 10 10
6 6 7 8 8 9 9 10 10 11 11 11 11 9 9 9 9 10 10 11 11 11 11 11 12 11 11 11 11 10 9 10 12 13 10 9 9 8 8 8 8 9
7 7 8 8 8 8 8 9 9 9 9 9 9 11 10 10 10 11 10 9 11 12 11 11 12 12 11 11 10 11 11 10 11 13 13 9 8 9 8 9 9 8
7 6 6 6 7 6 7 8 9 9 9 10 11 10 11 11 11 9 10 8 10 12 12 12 13 12 13 11 11 12 12 9 10 12 12 13 8 8 6 6 6 7
6 5 5 6 7 6 6 6 8 8 9 9 10 10 10 10 10 10 11 10 10 12 12 12 13 12 12 12 12 12 13 12 12 12 11 12 13 9 8 6 6 6
7 5 6 6 8 7 8 6 5 6 6 8 8 9 11 11 11 10 10 10 10 12 12 12 12 11 11 11 13 13 12 13 13 13 12 11 11 13 10 7 7 8
6 5 6 8 8 8 8 8 6 4 5 7 8 9 9 10 10 10 11 11 10 12 14 14 13 13 14 14 13 12 12 12 13 12 12 12 11 12 13 9 7 7
6 6 8 8 7 7 8 8 8 7 5 4 6 8 8 9 9 9 11 11 11 12 12 14 14 12 11 13 14 14 13 12 12 12 12 12 10 11 11 10 7 7
6 7 7 7 7 7 7 7 8 8 8 6 5 7 8 9 9 10 10 11 11 12 13 12 12 11 12 13 14 15 14 13 12 11 11 10 9 9 10 11 9 7
5 5 5 5 5 5 6 7 8 9 9 8 6 6 8 9 9 9 9 10 10 10 10 10 12 13 14 16 13 14 13 12 11 12 11 10 11 8 10 10 10 8
5 5 5 5 5 5 5 6 7 8 8 8 8 7 7 8 8 8 8 9 9 9 11 10 11 12 12 15 15 15 12 13 13 12 12 11 10 10 11 11 10 8
7 6 6 6 7 7 5 5 5 6 7 7 8 7 7 8 8 8 9 9 9 10 10 10 11 10 19 24 21 16 14 10 12 12 11 10 11 12 14 15 15 15
8 8 7 8 7 8 7 6 5 5 5 6 6 6 6 7 8 9 9 9 10 10 10 10 10 13 24 21 23 25 17 13 12 11 13 14 14 13 11 13 11 12
7 7 8 7 8 8 8 6 5 4 5 5 6 6 6 5 7 8 8 8 8 9 9 10 10 19 21 23 23 23 21 13 11 10 11 12 11 12 11 11 12 11
6 7 8 8 8 8 7 7 6 5 5 6 6 5 4 6 6 7 7 7 8 8 9 10 9 18 20 23 22 23 22 16 11 11 11 11 12 13 13 12 11 10
5 6 7 7 7 7 7 8 8 7 5 4 5 5 5 5 5 6 6 7 8 8 8 8 9 17 20 22 22 22 21 16 11 11 12 12 13 13 12 12 11 10
5 5 6 6 6 6 7 8 8 7 7 6 6 6 6 6 6 6 6 6 7 7 7 8 9 18 19 21 21 22 20 14 11 10 10 11 11 11 12 11 12 10
5 5 5 5 5 6 7 7 7 7 7 6 7 7 6 5 5 6 7 7 7 8 8 9 9 16 20 21 21 22 19 11 11 11 11 11 11 12 12 11 11 11
5 5 5 5 5 6 6 6 6 7 7 6 7 6 6 7 7 8 7 7 8 9 9 9 9 14 19 21 20 22 15 10 11 10 10 11 11 11 11 11 11 13
5 5 5 5 5 6 5 5 5 4 6 6 6 6 6 6 6 7 8 8 9 9 10 9 9 13 19 20 20 21 17 11 10 10 11 10 10 10 10 10 12 21
4 5 5 5 5 5 5 5 5 5 4 4 6 5 6 5 5 6 7 8 9 9 13 11 9 11 17 19 20 20 16 10 10 10 12 11 11 10 10 10 11 12
4 5 5 5 5 5 5 5 4 4 6 5 5 6 6 6 5 5 7 8 8 9 9 9 10 10 13 19 19 19 19 13 9 11 14 13 11 11 12 11 11 11
Wind_Direction
30 33 30 24 23 10 8 10 9 5 357 348 346 336 332 330 339 349 354 355 360 357 351 339 329 316 302 289 275 268 261 258 255 249 250 252 252 255 256 251 247 242
37 34 29 22 17 13 12 17 13 8 354 346 346 334 340 339 1 5 5 6 7 2 353 343 335 329 321 310 299 288 281 275 270 261 261 259 257 254 253 250 248 245
43 36 35 28 23 20 16 18 14 9 1 355 358 6 360 0 7 12 12 19 11 8 4 360 357 354 341 328 312 295 288 286 283 275 265 260 256 256 259 255 238 237
35 40 34 27 30 30 24 21 17 8 3 6 5 1 4 7 9 12 15 23 12 10 5 3 1 355 353 349 338 313 292 283 279 276 270 262 255 250 251 249 244 236
44 44 35 36 40 40 32 28 22 16 10 6 2 5 7 7 6 6 13 25 11 360 350 349 349 354 352 350 344 341 335 316 297 283 274 265 259 253 249 244 244 244
38 36 37 35 43 44 38 35 30 23 16 15 9 3 6 6 8 7 13 34 11 358 353 355 354 347 346 339 339 342 339 335 329 316 294 278 269 257 251 246 242 243
39 40 40 39 38 39 44 39 35 29 24 20 20 21 10 12 11 10 6 36 13 2 358 356 352 347 345 342 338 335 335 329 329 330 319 298 284 273 257 247 244 241
44 43 47 45 42 34 39 43 38 31 24 25 30 25 23 19 13 15 6 19 18 5 4 359 355 351 348 345 340 337 332 331 325 330 329 318 291 288 277 266 251 239
50 45 48 48 45 38 39 40 42 38 30 28 27 25 23 20 18 20 12 16 17 11 5 4 357 353 351 346 340 335 330 326 325 322 321 325 320 302 286 271 264 262
49 46 49 50 49 39 37 37 39 43 37 36 31 28 28 23 21 19 20 18 19 12 8 3 356 355 349 349 342 334 329 325 323 321 317 318 320 316 299 280 263 258
50 44 46 48 49 40 33 32 35 40 41 42 38 36 31 26 23 20 20 21 21 11 7 4 355 355 351 347 342 338 330 323 320 318 315 314 314 310 308 286 265 261
53 47 46 45 45 41 34 33 35 35 40 47 43 42 37 33 28 21 23 21 19 14 6 1 1 351 348 348 343 341 335 326 320 316 314 314 308 309 305 301 266 264
54 51 49 50 47 42 38 36 33 31 31 36 43 45 42 34 29 27 23 24 22 16 11 2 353 350 352 352 348 344 336 328 321 315 312 311 304 300 305 313 301 270
49 45 43 42 43 41 43 44 42 38 32 25 30 39 40 37 32 29 26 28 26 17 7 4 1 1 359 355 349 343 336 327 321 321 314 308 307 296 312 311 311 305
35 35 33 32 30 35 36 37 40 42 40 37 31 33 36 34 31 27 23 24 22 17 12 8 9 2 1 355 348 343 340 338 336 323 320 311 309 314 326 324 319 317
40 33 29 26 32 33 30 32 34 35 38 40 38 34 36 35 30 27 23 20 15 12 12 11 9 6 356 352 356 354 346 337 342 340 328 325 337 358 354 355 354 348
51 48 43 41 38 37 35 35 30 30 36 40 36 32 34 36 30 28 26 20 18 13 11 12 10 4 355 356 355 356 357 351 346 342 348 357 0 1 354 353 353 357
52 49 44 40 40 38 37 35 32 29 34 36 36 30 28 31 32 28 24 20 16 16 15 12 11 4 359 358 357 355 357 354 351 347 355 357 358 355 359 352 353 349
57 54 50 43 37 35 36 37 32 27 27 26 25 20 21 32 30 23 22 15 14 12 12 8 8 6 3 1 359 356 354 356 359 357 358 356 356 357 359 357 352 350
58 57 53 45 37 35 34 35 34 28 15 11 13 7 15 23 22 24 18 14 10 9 4 1 4 4 3 2 0 357 353 356 360 358 0 354 355 357 356 354 354 352
62 59 57 46 38 37 38 38 32 24 19 9 13 11 10 4 6 14 15 12 5 3 3 1 1 2 2 1 1 359 352 354 359 1 357 355 355 354 354 353 350 354
72 66 59 51 45 41 43 38 33 24 20 11 17 15 14 3 359 7 7 6 1 1 3 2 356 2 3 1 0 359 355 358 356 357 358 358 354 355 352 352 345 351
80 76 66 57 49 49 43 39 36 25 23 15 24 21 18 16 14 8 1 360 1 1 3 360 356 1 5 2 0 359 358 1 355 353 352 355 355 354 352 351 348 355
87 85 77 63 55 52 44 35 30 26 27 15 28 16 15 10 10 13 9 7 6 3 1 0 355 358 4 2 1 1 360 0 356 354 346 345 348 350 351 350 351 354
90 87 85 74 62 49 45 38 29 31 8 11 15 12 9 352 2 14 10 6 6 4 1 3 356 357 2 2 2 2 3 356 357 356 352 347 345 345 347 349 346 350
81 89 85 81 68 51 41 35 23 25 17 17 8 12 2 359 353 1 9 2 357 3 3 1 358 358 360 0 1 1 3 2 354 0 357 346 346 348 345 344 346 345